[[{"header":{"parameterUnit":"m.s-1","parameterCategory":1,"la1":30.2991,"la2":30.254,"lo1":-89.0895,"lo2":-89.0444,"dy":0.0017,"dx":0.0017,"nx":28,"ny":28,"refTime":"2024-06-20T21:00:00:Z","depth":0,"parameterNumber":2,"parameterNumberName":"U-component_of_WINDS"},"data":[0,0,0,0,0,0,0,0,0,0,0,0,0,0,0,0,0,0,0,0,0,0,0,0,0,0,0,0,0,0,0,0,0,0,0,0,0,0,0,0,0,0,0,0,0,0,0,0,0,0,0,0,0,0,0,0,0,0,-4.7968,-4.7968,0,-4.793,-4.793,-4.7929,-4.7723,-4.7718,-4.7713,-4.7709,-4.7673,-4.7676,-4.768,0,0,0,0,0,0,0,0,0,0,0,0,0,-4.7866,-4.7869,-4.7968,-4.7968,-4.7967,-4.793,-4.793,-4.7929,-4.7724,-4.7718,-4.7712,-4.7706,-4.7672,-4.7676,-4.768,0,0,0,0,0,0,0,0,0,0,0,0,0,-4.7878,-4.787,-4.7968,-4.786,-4.785,-4.793,-4.793,-4.7929,-4.7725,-4.7718,-4.771,-4.7703,-4.767,-4.7676,-4.7681,-4.7863,0,0,-4.7698,-4.77,0,0,0,0,0,0,0,0,-4.7877,-4.7882,-4.7877,-4.7868,-4.7857,-4.7824,-4.788,-4.7907,-4.7727,-4.7773,-4.7708,-4.77,-4.7729,-4.7729,-4.7739,-4.7861,-4.786,-4.7698,-4.7702,-4.7704,-4.7705,0,0,0,0,0,0,0,-4.7877,-4.7882,-4.7953,-4.7877,-4.7865,-4.7815,-4.7808,-4.7884,-4.7793,-4.7768,-4.7753,-4.7751,-4.7722,-4.7734,-4.7736,-4.7859,-4.7698,-4.7703,-4.7706,-4.7708,-4.8127,-4.8135,0,0,0,0,0,0,-4.7891,-4.7883,-4.7954,-4.7952,-4.7849,-4.7822,-4.7815,-4.7842,-4.7792,-4.7777,-4.7758,-4.7742,-4.7728,-4.773,-4.7734,-4.7942,-4.7704,-4.7709,-4.7712,-4.812,-4.8129,-4.8137,0,0,0,0,0,0,-4.7889,-4.7899,-4.7956,-4.7913,-4.7917,-4.7832,-4.7864,-4.7845,-4.7856,-4.7784,-4.7767,-4.7786,-4.7722,-4.7727,-4.7832,-4.7938,-4.7711,-4.7716,-4.811,-4.8122,-4.8133,-4.8361,0,0,0,0,0,0,-4.7887,-4.79,-4.7967,-4.7916,-4.792,-4.8054,-4.787,-4.785,-4.7866,-4.7845,-4.7806,-4.7792,-4.7717,-4.7825,-4.7837,-4.7941,-4.7721,-4.81,-4.8116,-4.813,-4.8343,-4.8379,-4.8409,0,0,0,0,0,-4.7884,-4.8034,-4.7972,-4.7982,-4.8002,-4.806,-4.8062,-4.7972,-4.7875,-4.7942,-4.7896,-4.7793,-4.7925,-4.7837,-4.785,-4.7957,-4.8093,-4.8111,-4.8128,-4.8329,-4.8372,-4.8408,0,0,0,0,0,0,-4.8101,-4.8025,-4.7956,-4.8093,-4.8085,-4.8026,-4.8108,-4.8021,-4.8041,-4.802,-4.7908,-4.7901,-4.8023,-4.8,-4.7904,-4.813,-4.7991,-4.8013,-4.8139,-4.818,-4.8212,-4.8214,-4.7725,0,0,0,0,0,-4.8165,-4.8218,-4.8149,-4.8277,-4.8276,-4.8194,-4.8215,-4.8146,-4.8133,-4.8129,-4.809,-4.8083,-4.8121,-4.815,-4.8182,-4.834,-4.8328,-4.842,-4.8453,-4.848,-4.8499,-4.858,-4.8619,-4.8195,-4.8195,-4.8195,0,0,-4.8298,-4.8263,-4.8303,-4.832,-4.8305,-4.8362,-4.8192,-4.826,-4.8301,-4.814,-4.8235,-4.8208,-4.8191,-4.8323,-4.838,-4.8308,-4.8614,-4.8503,-4.8525,-4.8529,-4.8602,-4.8642,-4.8678,-4.8207,-4.8205,-4.8203,0,0,-4.8567,-4.8547,-4.865,-4.8639,-4.8618,-4.8562,-4.8587,-4.8541,-4.8515,-4.861,-4.8489,-4.8538,-4.8608,-4.8601,-4.8607,-4.8875,-4.8781,-4.8889,-4.906,-4.914,-4.9173,-4.9202,-4.9296,-4.9332,-4.8908,-4.8909,-4.8909,0,-4.8735,-4.8815,-4.8715,-4.879,-4.8801,-4.8656,-4.876,-4.8754,-4.8747,-4.8757,-4.8678,-4.8762,-4.8741,-4.8869,-4.8934,-4.8944,-4.8969,-4.8892,-4.9176,-4.9204,-4.923,-4.9318,-4.9354,-4.8922,-4.892,-4.8919,-4.8918,0,-4.9021,-4.9079,-4.9165,-4.9159,-4.918,-4.927,-4.9183,-4.9217,-4.9146,-4.9099,-4.9197,-4.9167,-4.919,-4.9216,-4.9148,-4.9334,-4.929,-4.9196,-4.9054,-4.9285,-4.9366,-4.94,-4.8941,-4.8936,-4.8932,-4.8929,0,0,-4.9426,-4.9362,-4.9396,-4.939,-4.9357,-4.94,-4.9484,-4.9504,-4.9535,-4.9535,-4.9601,-4.9664,-4.9576,-4.9583,-4.9513,-4.9584,-4.9796,-4.948,-4.9478,-4.9538,-4.9998,-5.0068,-5.0109,-4.9734,-4.974,-4.9745,-4.9998,0,-4.9683,-4.9819,-4.9731,-4.9883,-4.9934,-4.9798,-4.987,-4.9858,-4.9817,-4.9855,-4.9809,-4.9855,-4.9736,-4.9739,-4.9803,-4.9757,-4.9887,-4.9738,-4.9795,-4.9798,-4.9801,-5.0151,-5.0225,-5.0465,-5.0029,-5.0035,-5.0039,0,-5.0,-5.0011,-5.0168,-5.0122,-5.0141,-5.0207,-5.0219,-5.0258,-5.0241,-5.0206,-5.0214,-5.0127,-5.0206,-5.0068,-5.0176,-5.0076,-5.0095,-5.0077,-5.0084,-5.0084,-4.9931,-5.0159,-5.054,-5.0576,-5.0088,-5.0084,-5.008,0,-5.0277,-5.0332,-5.0431,-5.0432,-5.0382,-5.0432,-5.0414,-5.039,-5.0408,-5.042,-5.043,-5.0452,-5.0463,-5.0482,-5.0403,-5.031,-5.0521,-5.0377,-5.0494,-5.0496,-5.0542,-5.054,-5.093,-5.0559,-5.0558,-5.0557,-5.0557,0,-5.0571,-5.0672,-5.0555,-5.0616,-5.0725,-5.0624,-5.0734,-5.0702,-5.0682,-5.0735,-5.062,-5.0673,-5.0566,-5.0608,-5.0548,-5.0645,-5.0652,-5.0625,-5.0608,-5.0635,-5.0638,-5.0644,-5.0624,-5.0567,-5.0565,-5.0563,-5.0561,0,-5.0898,-5.0824,-5.0923,-5.0868,-5.0857,-5.0939,-5.0892,-5.0947,-5.0898,-5.0966,-5.0977,-5.09,-5.0944,-5.0867,-5.0902,-5.0861,-5.0997,-5.0955,-5.1002,-5.0989,-5.1109,-5.1099,-5.1515,-5.1564,-5.1164,-5.1168,-5.1171,0,-5.109,-5.1164,-5.1116,-5.1142,-5.113,-5.1175,-5.1192,-5.1096,-5.1119,-5.1106,-5.1163,-5.1197,-5.1218,-5.1294,-5.1242,-5.1268,-5.1224,-5.1369,-5.1227,-5.1252,-5.1224,-5.122,-5.1226,-5.1397,-5.1402,-5.1406,-5.1409,0,-5.1438,-5.1397,-5.1425,-5.1442,-5.1465,-5.1474,-5.1474,-5.1503,-5.1401,-5.1434,-5.1475,-5.1492,-5.1527,-5.1562,-5.1575,-5.1557,-5.1467,-5.1454,-5.1482,-5.1509,-5.1533,-5.152,-5.1079,-5.1445,-5.1441,-5.1438,-5.1437,-5.1435,-5.1701,-5.1759,-5.1734,-5.177,-5.176,-5.1763,-5.1811,-5.1767,-5.18,-5.1819,-5.1762,-5.1818,-5.1799,-5.1808,-5.18,-5.1843,-5.1779,-5.182,-5.183,-5.1841,-5.186,-5.1528,-5.1845,-5.1844,-5.1843,-5.1842,-5.1841,0,-5.204,-5.2017,-5.2051,-5.2054,-5.2083,-5.1994,-5.199,-5.202,-5.207,-5.206,-5.2083,-5.2132,-5.2165,-5.2116,-5.2141,-5.2185,-5.2144,-5.2195,-5.219,-5.2187,-5.1916,-5.1888,-5.2227,-5.2227,-5.2227,-5.2227,-5.2227,-5.2227,-5.222,-5.2314,-5.2271,-5.2358,-5.2335,-5.2387,-5.2392,-5.2394,-5.2385,-5.2444,-5.2471,-5.2438,-5.2413,-5.2435,-5.2462,-5.2447,-5.2461,-5.2526,-5.2496,-5.2244,-5.2206,-5.217,-5.2143,-5.253,-5.2531,-5.2763,-5.2765,-5.2767]},{"header":{"parameterUnit":"m.s-1","parameterCategory":1,"la1":30.2991,"la2":30.254,"lo1":-89.0895,"lo2":-89.0444,"dy":0.0017,"dx":0.0017,"nx":28,"ny":28,"refTime":"2024-06-20T21:00:00:Z","depth":0,"parameterNumber":3,"parameterNumberName":"V-component_of_WINDS"},"data":[0,0,0,0,0,0,0,0,0,0,0,0,0,0,0,0,0,0,0,0,0,0,0,0,0,0,0,0,0,0,0,0,0,0,0,0,0,0,0,0,0,0,0,0,0,0,0,0,0,0,0,0,0,0,0,0,0,0,-0.1736,-0.1737,0,-0.1809,-0.1809,-0.181,-0.1884,-0.1885,-0.1886,-0.1887,-0.1962,-0.1963,-0.1964,0,0,0,0,0,0,0,0,0,0,0,0,0,-0.166,-0.1661,-0.1736,-0.1737,-0.1738,-0.1809,-0.181,-0.1811,-0.1884,-0.1885,-0.1886,-0.1887,-0.1961,-0.1963,-0.1964,0,0,0,0,0,0,0,0,0,0,0,0,0,-0.1709,-0.1662,-0.1736,-0.1783,-0.1788,-0.1808,-0.181,-0.1811,-0.1884,-0.1885,-0.1887,-0.1888,-0.1961,-0.1963,-0.1964,-0.1944,0,0,-0.1969,-0.197,0,0,0,0,0,0,0,0,-0.1706,-0.1712,-0.1775,-0.178,-0.1785,-0.1839,-0.181,-0.1856,-0.1883,-0.1847,-0.1887,-0.1889,-0.192,-0.1925,-0.1935,-0.1948,-0.1951,-0.1969,-0.197,-0.1971,-0.1971,0,0,0,0,0,0,0,-0.1703,-0.1709,-0.1765,-0.1776,-0.1782,-0.18,-0.1809,-0.1819,-0.1874,-0.185,-0.1856,-0.1864,-0.1923,-0.1933,-0.1937,-0.1952,-0.1969,-0.1971,-0.1972,-0.1972,-0.195,-0.1949,0,0,0,0,0,0,-0.1692,-0.1706,-0.1763,-0.1767,-0.1749,-0.18,-0.181,-0.182,-0.1874,-0.1884,-0.1862,-0.1867,-0.193,-0.1935,-0.194,-0.1919,-0.1971,-0.1972,-0.1973,-0.1952,-0.195,-0.1948,0,0,0,0,0,0,-0.169,-0.1697,-0.176,-0.1738,-0.1747,-0.18,-0.1811,-0.1821,-0.1832,-0.1883,-0.1893,-0.1863,-0.1931,-0.1938,-0.1942,-0.1923,-0.1973,-0.1975,-0.1954,-0.1951,-0.1949,-0.1878,0,0,0,0,0,0,-0.1688,-0.1695,-0.1689,-0.1737,-0.1748,-0.176,-0.181,-0.1821,-0.1834,-0.1841,-0.1887,-0.1896,-0.1933,-0.1939,-0.1944,-0.1926,-0.1976,-0.1956,-0.1953,-0.195,-0.1882,-0.1873,-0.1866,0,0,0,0,0,-0.1685,-0.1666,-0.1688,-0.1694,-0.1741,-0.1759,-0.1765,-0.1808,-0.1832,-0.1825,-0.1858,-0.1894,-0.1924,-0.1939,-0.1945,-0.1927,-0.1957,-0.1953,-0.195,-0.1886,-0.1875,-0.1866,0,0,0,0,0,0,-0.1615,-0.1673,-0.1698,-0.1695,-0.1721,-0.1771,-0.1764,-0.1796,-0.1817,-0.1822,-0.1875,-0.1885,-0.1882,-0.1906,-0.1921,-0.191,-0.1946,-0.1943,-0.1895,-0.1885,-0.1877,-0.1871,-0.1977,0,0,0,0,0,-0.1599,-0.1608,-0.166,-0.1651,-0.1663,-0.1711,-0.1721,-0.1752,-0.1781,-0.1793,-0.1827,-0.1854,-0.187,-0.1879,-0.1896,-0.1886,-0.1896,-0.1876,-0.1868,-0.1861,-0.1858,-0.1853,-0.1844,-0.1937,-0.1937,-0.1937,0,0,-0.1566,-0.1599,-0.1602,-0.1638,-0.1662,-0.1671,-0.172,-0.1728,-0.1735,-0.1794,-0.18,-0.1825,-0.1859,-0.1855,-0.1856,-0.1875,-0.1835,-0.1857,-0.1851,-0.1852,-0.1848,-0.1839,-0.1832,-0.1934,-0.1935,-0.1935,0,0,-0.151,-0.1537,-0.1532,-0.1555,-0.1591,-0.1623,-0.1621,-0.1666,-0.1685,-0.1692,-0.1736,-0.1745,-0.1771,-0.1793,-0.1808,-0.1758,-0.1791,-0.1763,-0.172,-0.1714,-0.1706,-0.17,-0.1681,-0.1674,-0.176,-0.1759,-0.1759,0,-0.1465,-0.148,-0.1526,-0.153,-0.1544,-0.1598,-0.1593,-0.1613,-0.1653,-0.1661,-0.1682,-0.1714,-0.1741,-0.1743,-0.173,-0.1741,-0.174,-0.1757,-0.1704,-0.1698,-0.1693,-0.1675,-0.1668,-0.1755,-0.1756,-0.1756,-0.1757,0,-0.1422,-0.1431,-0.1423,-0.1459,-0.1472,-0.1472,-0.1517,-0.1525,-0.1554,-0.1583,-0.1588,-0.1622,-0.1647,-0.1649,-0.1679,-0.1654,-0.1665,-0.1694,-0.1731,-0.1679,-0.1664,-0.1658,-0.175,-0.1751,-0.1752,-0.1753,0,0,-0.1325,-0.1385,-0.1381,-0.1397,-0.144,-0.1448,-0.1449,-0.1472,-0.1477,-0.1502,-0.1504,-0.1524,-0.1551,-0.1568,-0.16,-0.1594,-0.1551,-0.1624,-0.1626,-0.1608,-0.1525,-0.1502,-0.1493,-0.1574,-0.1573,-0.1572,-0.1522,0,-0.1275,-0.1281,-0.1322,-0.1316,-0.1324,-0.1375,-0.1376,-0.1402,-0.1429,-0.144,-0.147,-0.1483,-0.1518,-0.1528,-0.1525,-0.1557,-0.1535,-0.1561,-0.1575,-0.1575,-0.1564,-0.1486,-0.1462,-0.1412,-0.1516,-0.1515,-0.1514,0,-0.1219,-0.1239,-0.1234,-0.1275,-0.128,-0.128,-0.1304,-0.1314,-0.1344,-0.1364,-0.1381,-0.1417,-0.142,-0.1455,-0.1461,-0.1477,-0.1486,-0.1502,-0.1501,-0.1503,-0.1541,-0.1484,-0.1398,-0.139,-0.1505,-0.1506,-0.1507,0,-0.1147,-0.1173,-0.1173,-0.1185,-0.1233,-0.1232,-0.1252,-0.1283,-0.1294,-0.1315,-0.1322,-0.1343,-0.1354,-0.137,-0.141,-0.1432,-0.141,-0.1449,-0.1426,-0.1425,-0.1419,-0.1418,-0.1331,-0.1425,-0.1425,-0.1426,-0.1426,0,-0.1087,-0.1081,-0.114,-0.114,-0.1134,-0.1181,-0.1175,-0.12,-0.1227,-0.1232,-0.1277,-0.1281,-0.1334,-0.1343,-0.1375,-0.1374,-0.1379,-0.1395,-0.1403,-0.139,-0.1387,-0.1395,-0.1399,-0.1424,-0.1424,-0.1424,-0.1425,0,-0.1005,-0.1045,-0.1047,-0.1092,-0.1103,-0.1097,-0.1135,-0.1137,-0.1166,-0.1171,-0.1176,-0.1222,-0.1235,-0.1276,-0.1301,-0.1322,-0.131,-0.1327,-0.13,-0.1305,-0.128,-0.1281,-0.1194,-0.1184,-0.1285,-0.1284,-0.1283,0,-0.0964,-0.096,-0.1004,-0.101,-0.1028,-0.1038,-0.1049,-0.1095,-0.1104,-0.1137,-0.1134,-0.115,-0.1166,-0.1185,-0.1221,-0.1239,-0.1255,-0.1223,-0.1258,-0.1245,-0.1253,-0.1252,-0.1252,-0.1215,-0.1214,-0.1213,-0.1212,0,-0.0886,-0.0905,-0.0919,-0.0939,-0.095,-0.0968,-0.0989,-0.0992,-0.1043,-0.1051,-0.1065,-0.1077,-0.11,-0.1116,-0.114,-0.116,-0.1194,-0.1201,-0.1196,-0.1183,-0.1166,-0.1173,-0.1278,-0.1203,-0.1203,-0.1204,-0.1205,-0.1205,-0.0823,-0.0821,-0.0851,-0.0864,-0.0885,-0.0902,-0.0905,-0.0934,-0.0946,-0.0969,-0.0995,-0.1005,-0.1034,-0.1069,-0.1087,-0.1096,-0.1114,-0.1108,-0.1106,-0.1104,-0.1097,-0.1166,-0.11,-0.1101,-0.1101,-0.1101,-0.1101,0,-0.0746,-0.0767,-0.0779,-0.0806,-0.0816,-0.0847,-0.0871,-0.0877,-0.0885,-0.0909,-0.0923,-0.0938,-0.0953,-0.0989,-0.1008,-0.1007,-0.1023,-0.101,-0.101,-0.1014,-0.108,-0.1081,-0.0997,-0.0997,-0.0997,-0.0997,-0.0997,-0.0997,-0.0707,-0.0705,-0.0728,-0.0736,-0.0758,-0.0768,-0.0779,-0.0795,-0.0815,-0.0829,-0.0841,-0.0865,-0.0893,-0.0914,-0.0928,-0.0939,-0.0943,-0.0924,-0.0939,-0.1,-0.101,-0.1019,-0.1021,-0.0925,-0.0925,-0.0873,-0.0873,-0.0872]}]]